STARLINK-1347 (45586 NORAD) Tracking and Keplerian Element Data

This shows tracking and keplerian element data for the satellite.

Feedback or suggestion? Click here.




ElementValue
Catalog45586
NameSTARLINK-1347
Epoch Orbit177
Epoch Day189.91668981
Epoch Year2020
RAAN25.448
Inclination52.9991
Eccentricity0.0001655
Argument of Perigee33.7677
Mean Anonmoly219.8044
Mean Motion15.62706745
Decay Rate0.00036558
L11 45586U 20025BH 20189.91668981 .00036558 00000-0 40400-3 0 9993
L22 45586 52.9991 25.4480 0001655 33.7677 219.8044 15.62706745 1774

Live tracking and technical data element details for STARLINK-1347 (NORAD 45586). STARLINK-1347 can be tracked NOW for your location showing map with azimuth and elevation plus other details from your city location.

Track the satellite on the map from your city or location and see movement details for azimuth, elevation, latitude, longitude, range, height, and movement on the map or in text.







IsCatalogInMostPopularTable: catalog: 45586, numindb: 15
Update: records affected: 1



GetName: 45586 STARLINK-1347

Hit Count: updated at: Thu, 09 Jul 2020 01:27:58 GMT